Location: Babice
(50.3480°N, 22.9363°E)
Time: 12:08:15
(UTC+00:00)

Resurs 1-4 Rocket - Pass Details

Date: 14 July 2020
Orbit: 800 x 814 km, 98.6° (Epoch: 07 August)

Event Time Altitude Azimuth Distance (km) Brightness Sun altitude
Rises 01:20:13 0° 8° (N) 3,351 6.5 -9.2°
Reaches altitude 10° 01:22:46 10° 359° (N) 2,414 5.4 -9.0°
Maximum altitude 01:27:27 32° 298° (WNW) 1,358 3.2 -8.5°
Drops below altitude 10° 01:32:06 10° 236° (WSW) 2,393 3.9 -8.0°
Enters shadow 01:32:21 - 235° (SW) 2,479 4.0 -8.0°
